User: anonymous   Login
Location: Betzi
(47.2343°N, 9.5260°E)
Time: 08:17:10
(UTC+00:00)
Language:

USA 307 - Orbit

View from above orbital plane
View from above orbital plane
View from above satellite
View from above satellite

Ground track
Ground track

The orbit data is extracted from the following two-line orbital elements,

1 45875U 20046C   22221.97846779 0.00008000  00000-0  54432-3 0    09
2 45875  53.9732 242.4599 0009000 123.0061 236.9938 15.05820382    01
Epoch (UTC): 09 August 2022 23:28:59
Eccentricity: 0.0009000
inclination: 53.9732°
perigee height: 543 km
apogee height: 555 km
right ascension of ascending node: 242.4599°
argument of perigee: 123.0061°
revolutions per day: 15.05820382
mean anomaly at epoch: 236.9938°
orbit number at epoch: 0

The dashed part of the orbit path shows where the satellite is in the earth's shadow,  

DLR